Location: Seattle
(47.6064°N, 122.3308°W)
Time: 22:47:53
(UTC-07:00)

S-56A Canister/Altair - Pass Details

Date: 29 July 2021
Orbit: 632 x 2500 km, 38.9° (Epoch: 23 September)

Event Time Altitude Azimuth Distance (km) Brightness Sun altitude
Rises 00:23:25 0° 279° (W) 5,870 12.3 -22.7°
Reaches altitude 10° 00:31:06 10° 253° (WSW) 4,452 11.3 -23.0°
Maximum altitude 00:34:38 12° 236° (SW) 4,068 11.0 -23.1°
Enters shadow 00:37:07 11° 222° (SW) 3,968 10.8 -23.2°
